Location: Mary A Oil Field
(38.5606°N, 98.9545°W)
Time: 09:16:54
(UTC+00:00)

Cosmos 2227 Rocket - Pass Details

Date: 20 January 2020
Orbit: 841 x 843 km, 71.0° (Epoch: 16 February)

Event Time Altitude Azimuth Distance (km) Brightness Sun altitude
Rises 00:07:20 0° 162° (SSE) 3,382 5.4 -5.2°
Reaches altitude 10° 00:10:20 10° 147° (SSE) 2,452 4.5 -5.8°
Maximum altitude 00:14:24 21° 100° (E) 1,812 3.5 -6.5°
Drops below altitude 10° 00:18:29 10° 54° (NE) 2,462 4.0 -7.3°
Enters shadow 00:19:31 - 47° (NE) 2,766 4.3 -7.5°
